STARLINK-1548, 46054

Orbit data source: Space-Track

STARLINK-1548, 46054 is a payload satellite owned by SpaceX/Seattle (US) in LEO that was launched on Fri, 07 Aug 2020 UTC via an FALCON 9 launch vehicle from the Air Force Eastern Test Range (AFETR). Payload-class satellites include a variety of spacecraft equipped with specific instruments for various scientific and technological missions. These include communications satellites like Starlink; space stations such as the ISS; scientific satellites like the Hubble; Earth observation satellites from companies like Planet Labs, Umbra, and HawkEye 360; GPS; miniature CubeSats for education and research; and military/defense satellites.

Loading next visibility...
Identifier
46054, 2020-055AD
Orbit
LEO
Last TLE update
11 hours ago
Origin
Manufacturer
SpaceX/Seattle
Mission
Operational Commercial Communications
Bus & Motor
STARLINK, Unknown motor
Mass
260 kg wet, ~248 kg dry
Launch date (UTC)
2020-08-07 (5 years ago)
Launch vehicle
FALCON 9
Launch site
Air Force Eastern Test Range (AFETR)
Object type
Payload
Rocket body
Debris
Shape & HBR
Box + 1 Pan, 8.86 m
Radar Cross Section
13.562 m², Large (>1 m²)

Expand to show TLE details & history

TLE from 11 hours ago
0 STARLINK-1548
1 46054U 20055AD  25186.28905191  .00000171  00000-0  30384-4 0  9999
2 46054  53.0548 147.2424 0001111  77.6495 282.4618 15.06392472271743
Epoch: 2025-07-05T06:56Z
TLE epoch observation values (Epoch: 2025-07-05T06:56:14.085Z)
Latitude
-0.00002°
Longitude
119.65446°
Altitude
547.948 km
Speed
7.589 km/s
True Right ascension
09h 48m 58s
True Declination
0° 00' 00"
Sunlit
Object was in daylight at epoch
Visualization orbit readout
Latitude
1.93149°
Longitude
119.01237°
Altitude
547.703 km
Speed
7.59 km/s
Apparent Right ascension
12h 42m 50s
Apparent Declination
-33° 14' 36"
Sunlit
Object is in daylight
Visualization observer readout
Local Sidereal Time
06:01:07
Azimuth
111.459° ESE
Elevation
-27.895°
Doppler factor
1
Orbital elements
Apogee altitude
548.275 km
Perigee altitude
546.736 km
Semi-major axis
6,925.642 km
Eccentricity
0.00011
Inclination
53.0548°
RAAN
147.2424°
Arg. of periapsis
77.6495°
True anomaly
Unknown
Mean anomaly
282.4618°
Eccentric anomaly
Unknown
Mean motion
3.76576 °/min
Orbital period
95.6 mins
BSTAR
0.000030384
Loading maneuver chart data...
Loading SW <> Apogee altitude chart data...
Loading historical data...
Loading historical data...
Loading historical data...
Loading historical data...
Loading historical data...
Loading historical data...
Loading historical data...

STARLINK-1548 Visibility forecast

Observer location: undefined°, undefined°

Span
Click to sort rows by Start time (UTC) header in descending order
Start Az.
Max El. time (UTC)
Max El. Az.
Max El.
End time (UTC)
End Az.
5 mins2025-07-05 23:00:39.000Z171.93° S2025-07-05 23:03:39.000Z118.501° SE19.294°2025-07-05 23:05:39.000Z85.578° E
6 mins2025-07-06 00:39:39.000Z251.258° W2025-07-06 00:42:39.000Z339.516° N38.833°2025-07-06 00:45:39.000Z40.083° NE
5 mins2025-07-06 05:42:39.000Z350.452° N2025-07-06 05:44:39.000Z39.185° NE24.521°2025-07-06 05:47:39.000Z86.508° E
6 mins2025-07-06 07:21:39.000Z292.494° WNW2025-07-06 07:23:39.000Z240.133° WSW38.335°2025-07-06 07:27:39.000Z148.575° SSE
|